Year,Month,Day,Hour,Minute,Value (Times are PST for temperature in C)
2006,09,27,00,00,14.20
2006,09,27,00,01,14.20
2006,09,27,00,02,14.20
2006,09,27,00,03,14.20
2006,09,27,00,04,14.20
2006,09,27,00,05,14.20
2006,09,27,00,06,14.20
2006,09,27,00,07,14.20
2006,09,27,00,08,14.20
2006,09,27,00,09,14.20
2006,09,27,00,10,14.20
2006,09,27,00,11,14.10
2006,09,27,00,12,14.10
2006,09,27,00,13,14.10
2006,09,27,00,14,14.10
2006,09,27,00,15,14.10
2006,09,27,00,16,14.10
2006,09,27,00,17,14.10
2006,09,27,00,18,14.10
2006,09,27,00,19,14.10
2006,09,27,00,20,14.10
2006,09,27,00,21,14.00
2006,09,27,00,22,14.10
2006,09,27,00,23,14.10
2006,09,27,00,24,14.00
2006,09,27,00,25,14.00
2006,09,27,00,26,14.00
2006,09,27,00,27,14.00
2006,09,27,00,28,14.00
2006,09,27,00,29,14.00
2006,09,27,00,30,14.10
2006,09,27,00,31,14.10
2006,09,27,00,32,14.10
2006,09,27,00,33,14.10
2006,09,27,00,34,14.10
2006,09,27,00,35,14.10
2006,09,27,00,36,14.10
2006,09,27,00,37,14.10
2006,09,27,00,38,14.10
2006,09,27,00,39,14.10
2006,09,27,00,40,14.10
2006,09,27,00,41,14.10
2006,09,27,00,42,14.10
2006,09,27,00,43,14.10
2006,09,27,00,44,14.10
2006,09,27,00,45,14.10
2006,09,27,00,46,14.20
2006,09,27,00,47,14.20
2006,09,27,00,48,14.20
2006,09,27,00,49,14.20
2006,09,27,00,50,14.20
2006,09,27,00,51,14.20
2006,09,27,00,52,14.20
2006,09,27,00,53,14.20
2006,09,27,00,54,14.20
2006,09,27,00,55,14.20
2006,09,27,00,56,14.20
2006,09,27,00,57,14.20
2006,09,27,00,58,14.20
2006,09,27,00,59,14.20
2006,09,27,01,00,14.30
2006,09,27,01,01,14.30
2006,09,27,01,02,14.30
2006,09,27,01,03,14.30
2006,09,27,01,04,14.30
2006,09,27,01,05,14.30
2006,09,27,01,06,14.30
2006,09,27,01,07,14.30
2006,09,27,01,08,14.30
2006,09,27,01,09,14.30
2006,09,27,01,10,14.30
2006,09,27,01,11,14.30
2006,09,27,01,12,14.30
2006,09,27,01,13,14.20
2006,09,27,01,14,14.20
2006,09,27,01,15,14.20
2006,09,27,01,16,14.20
2006,09,27,01,17,14.20
2006,09,27,01,18,14.20
2006,09,27,01,19,14.20
2006,09,27,01,20,14.20
2006,09,27,01,21,14.10
2006,09,27,01,22,14.10
2006,09,27,01,23,14.10
2006,09,27,01,24,14.10
2006,09,27,01,25,14.10
2006,09,27,01,26,14.10
2006,09,27,01,27,14.00
2006,09,27,01,28,14.00
2006,09,27,01,29,14.00
2006,09,27,01,30,13.90
2006,09,27,01,31,13.90
2006,09,27,01,32,13.90
2006,09,27,01,33,13.80
2006,09,27,01,34,13.80
2006,09,27,01,35,13.80
2006,09,27,01,36,13.80
2006,09,27,01,37,13.70
2006,09,27,01,38,13.70
2006,09,27,01,39,13.70
2006,09,27,01,40,13.70
2006,09,27,01,41,13.70
2006,09,27,01,42,13.70
2006,09,27,01,43,13.70
2006,09,27,01,44,13.60
2006,09,27,01,45,13.60
2006,09,27,01,46,13.60
2006,09,27,01,47,13.60
2006,09,27,01,48,13.60
2006,09,27,01,49,13.60
2006,09,27,01,50,13.60
2006,09,27,01,51,13.60
2006,09,27,01,52,13.60
2006,09,27,01,53,13.60
2006,09,27,01,54,13.60
2006,09,27,01,55,13.60
2006,09,27,01,56,13.60
2006,09,27,01,57,13.60
2006,09,27,01,58,13.60
2006,09,27,01,59,13.60
2006,09,27,02,00,13.60
2006,09,27,02,01,13.60
2006,09,27,02,02,13.60
2006,09,27,02,03,13.60
2006,09,27,02,04,13.60
2006,09,27,02,05,13.60
2006,09,27,02,06,13.60
2006,09,27,02,07,13.60
2006,09,27,02,08,13.60
2006,09,27,02,09,13.60
2006,09,27,02,10,13.70
2006,09,27,02,11,13.60
2006,09,27,02,12,13.60
2006,09,27,02,13,13.60
2006,09,27,02,14,13.60
2006,09,27,02,15,13.60
2006,09,27,02,16,13.60
2006,09,27,02,17,13.60
2006,09,27,02,18,13.60
2006,09,27,02,19,13.60
2006,09,27,02,20,13.60
2006,09,27,02,21,13.60
2006,09,27,02,22,13.60
2006,09,27,02,23,13.60
2006,09,27,02,24,13.60
2006,09,27,02,25,13.50
2006,09,27,02,26,13.50
2006,09,27,02,27,13.50
2006,09,27,02,28,13.50
2006,09,27,02,29,13.50
2006,09,27,02,30,13.50
2006,09,27,02,31,13.50
2006,09,27,02,32,13.50
2006,09,27,02,33,13.50
2006,09,27,02,34,13.50
2006,09,27,02,35,13.50
2006,09,27,02,36,13.50
2006,09,27,02,37,13.50
2006,09,27,02,38,13.50
2006,09,27,02,39,13.60
2006,09,27,02,40,13.60
2006,09,27,02,41,13.60
2006,09,27,02,42,13.60
2006,09,27,02,43,13.60
2006,09,27,02,44,13.60
2006,09,27,02,45,13.60
2006,09,27,02,46,13.50
2006,09,27,02,47,13.50
2006,09,27,02,48,13.50
2006,09,27,02,49,13.50
2006,09,27,02,50,13.50
2006,09,27,02,51,13.50
2006,09,27,02,52,13.50
2006,09,27,02,53,13.50
2006,09,27,02,54,13.50
2006,09,27,02,55,13.50
2006,09,27,02,56,13.40
2006,09,27,02,57,13.40
2006,09,27,02,58,13.40
2006,09,27,02,59,13.40
2006,09,27,03,00,13.40
2006,09,27,03,01,13.40
2006,09,27,03,02,13.40
2006,09,27,03,03,13.40
2006,09,27,03,04,13.40
2006,09,27,03,05,13.40
2006,09,27,03,06,13.40
2006,09,27,03,07,13.30
2006,09,27,03,08,13.30
2006,09,27,03,09,13.30
2006,09,27,03,10,13.30
2006,09,27,03,11,13.30
2006,09,27,03,12,13.30
2006,09,27,03,13,13.30
2006,09,27,03,14,13.30
2006,09,27,03,15,13.30
2006,09,27,03,16,13.30
2006,09,27,03,17,13.30
2006,09,27,03,18,13.30
2006,09,27,03,19,13.30
2006,09,27,03,20,13.20
2006,09,27,03,21,13.20
2006,09,27,03,22,13.20
2006,09,27,03,23,13.20
2006,09,27,03,24,13.20
2006,09,27,03,25,13.20
2006,09,27,03,26,13.20
2006,09,27,03,27,13.20
2006,09,27,03,28,13.10
2006,09,27,03,29,13.10
2006,09,27,03,30,13.10
2006,09,27,03,31,13.10
2006,09,27,03,32,13.10
2006,09,27,03,33,13.00
2006,09,27,03,34,13.00
2006,09,27,03,35,13.00
2006,09,27,03,36,13.00
2006,09,27,03,37,13.00
2006,09,27,03,38,13.00
2006,09,27,03,39,13.00
2006,09,27,03,40,13.00
2006,09,27,03,41,13.00
2006,09,27,03,42,13.00
2006,09,27,03,43,13.00
2006,09,27,03,44,12.90
2006,09,27,03,45,12.90
2006,09,27,03,46,12.90
2006,09,27,03,47,12.90
2006,09,27,03,48,12.90
2006,09,27,03,49,12.90
2006,09,27,03,50,12.90
2006,09,27,03,51,12.90
2006,09,27,03,52,12.90
2006,09,27,03,53,12.90
2006,09,27,03,54,12.90
2006,09,27,03,55,12.90
2006,09,27,03,56,12.90
2006,09,27,03,57,12.90
2006,09,27,03,58,12.90
2006,09,27,03,59,12.80
2006,09,27,04,00,12.80
2006,09,27,04,01,12.80
2006,09,27,04,02,12.80
2006,09,27,04,03,12.70
2006,09,27,04,04,12.70
2006,09,27,04,05,12.70
2006,09,27,04,06,12.70
2006,09,27,04,07,12.70
2006,09,27,04,08,12.60
2006,09,27,04,09,12.60
2006,09,27,04,10,12.60
2006,09,27,04,11,12.60
2006,09,27,04,12,12.60
2006,09,27,04,13,12.60
2006,09,27,04,14,12.60
2006,09,27,04,15,12.50
2006,09,27,04,16,12.50
2006,09,27,04,17,12.50
2006,09,27,04,18,12.50
2006,09,27,04,19,12.50
2006,09,27,04,20,12.50
2006,09,27,04,21,12.50
2006,09,27,04,22,12.60
2006,09,27,04,23,12.60
2006,09,27,04,24,12.60
2006,09,27,04,25,12.60
2006,09,27,04,26,12.60
2006,09,27,04,27,12.60
2006,09,27,04,28,12.60
2006,09,27,04,29,12.60
2006,09,27,04,30,12.50
2006,09,27,04,31,12.50
2006,09,27,04,32,12.50
2006,09,27,04,33,12.50
2006,09,27,04,34,12.50
2006,09,27,04,35,12.50
2006,09,27,04,36,12.50
2006,09,27,04,37,12.40
2006,09,27,04,38,12.40
2006,09,27,04,39,12.40
2006,09,27,04,40,12.40
2006,09,27,04,41,12.40
2006,09,27,04,42,12.30
2006,09,27,04,43,12.30
2006,09,27,04,44,12.30
2006,09,27,04,45,12.30
2006,09,27,04,46,12.30
2006,09,27,04,47,12.30
2006,09,27,04,48,12.30
2006,09,27,04,49,12.30
2006,09,27,04,50,12.30
2006,09,27,04,51,12.30
2006,09,27,04,52,12.30
2006,09,27,04,53,12.30
2006,09,27,04,54,12.30
2006,09,27,04,55,12.30
2006,09,27,04,56,12.30
2006,09,27,04,57,12.30
2006,09,27,04,58,12.30
2006,09,27,04,59,12.30
2006,09,27,05,00,12.30
2006,09,27,05,01,12.30
2006,09,27,05,02,12.30
2006,09,27,05,03,12.20
2006,09,27,05,04,12.20
2006,09,27,05,05,12.20
2006,09,27,05,06,12.20
2006,09,27,05,07,12.20
2006,09,27,05,08,12.20
2006,09,27,05,09,12.10
2006,09,27,05,10,12.10
2006,09,27,05,11,12.10
2006,09,27,05,12,12.10
2006,09,27,05,13,12.10
2006,09,27,05,14,12.10
2006,09,27,05,15,12.10
2006,09,27,05,16,12.10
2006,09,27,05,17,12.10
2006,09,27,05,18,12.10
2006,09,27,05,19,12.10
2006,09,27,05,20,12.10
2006,09,27,05,21,12.00
2006,09,27,05,22,12.00
2006,09,27,05,23,12.00
2006,09,27,05,24,12.00
2006,09,27,05,25,12.00
2006,09,27,05,26,12.00
2006,09,27,05,27,12.00
2006,09,27,05,28,12.00
2006,09,27,05,29,12.10
2006,09,27,05,30,12.10
2006,09,27,05,31,12.10
2006,09,27,05,32,12.10
2006,09,27,05,33,12.10
2006,09,27,05,34,12.10
2006,09,27,05,35,12.10
2006,09,27,05,36,12.00
2006,09,27,05,37,12.00
2006,09,27,05,38,12.00
2006,09,27,05,39,12.00
2006,09,27,05,40,12.00
2006,09,27,05,41,12.00
2006,09,27,05,42,12.00
2006,09,27,05,43,12.00
2006,09,27,05,44,11.90
2006,09,27,05,45,11.90
2006,09,27,05,46,11.90
2006,09,27,05,47,11.90
2006,09,27,05,48,11.90
2006,09,27,05,49,11.90
2006,09,27,05,50,11.90
2006,09,27,05,51,11.80
2006,09,27,05,52,11.80
2006,09,27,05,53,11.80
2006,09,27,05,54,11.80
2006,09,27,05,55,11.80
2006,09,27,05,56,11.90
2006,09,27,05,57,11.90
2006,09,27,05,58,11.90
2006,09,27,05,59,11.90
2006,09,27,06,00,11.90
2006,09,27,06,01,11.90
2006,09,27,06,02,11.90
2006,09,27,06,03,12.00
2006,09,27,06,04,12.00
2006,09,27,06,05,12.00
2006,09,27,06,06,12.00
2006,09,27,06,07,12.00
2006,09,27,06,08,12.10
2006,09,27,06,09,12.10
2006,09,27,06,10,12.10
2006,09,27,06,11,12.10
2006,09,27,06,12,12.10
2006,09,27,06,13,12.10
2006,09,27,06,14,12.10
2006,09,27,06,15,12.10
2006,09,27,06,16,12.10
2006,09,27,06,17,12.10
2006,09,27,06,18,12.10
2006,09,27,06,19,12.10
2006,09,27,06,20,12.10
2006,09,27,06,21,12.10
2006,09,27,06,22,12.10
2006,09,27,06,23,12.10
2006,09,27,06,24,12.10
2006,09,27,06,25,12.10
2006,09,27,06,26,12.00
2006,09,27,06,27,12.00
2006,09,27,06,28,12.00
2006,09,27,06,29,12.00
2006,09,27,06,30,12.00
2006,09,27,06,31,11.90
2006,09,27,06,32,11.90
2006,09,27,06,33,11.90
2006,09,27,06,34,11.90
2006,09,27,06,35,11.90
2006,09,27,06,36,11.80
2006,09,27,06,37,11.80
2006,09,27,06,38,11.80
2006,09,27,06,39,11.80
2006,09,27,06,40,11.80
2006,09,27,06,41,11.80
2006,09,27,06,42,11.70
2006,09,27,06,43,11.70
2006,09,27,06,44,11.70
2006,09,27,06,45,11.70
2006,09,27,06,46,11.70
2006,09,27,06,47,11.60
2006,09,27,06,48,11.60
2006,09,27,06,49,11.60
2006,09,27,06,50,11.60
2006,09,27,06,51,11.60
2006,09,27,06,52,11.60
2006,09,27,06,53,11.60
2006,09,27,06,54,11.60
2006,09,27,06,55,11.50
2006,09,27,06,56,11.50
2006,09,27,06,57,11.50
2006,09,27,06,58,11.50
2006,09,27,06,59,11.50
2006,09,27,07,00,11.40
2006,09,27,07,01,11.40
2006,09,27,07,02,11.40
2006,09,27,07,03,11.40
2006,09,27,07,04,11.40
2006,09,27,07,05,11.40
2006,09,27,07,06,11.40
2006,09,27,07,07,11.40
2006,09,27,07,08,11.40
2006,09,27,07,09,11.40
2006,09,27,07,10,11.40
2006,09,27,07,11,11.40
2006,09,27,07,12,11.40
2006,09,27,07,13,11.40
2006,09,27,07,14,11.40
2006,09,27,07,15,11.40
2006,09,27,07,16,11.40
2006,09,27,07,17,11.40
2006,09,27,07,18,11.40
2006,09,27,07,19,11.40
2006,09,27,07,20,11.40
2006,09,27,07,21,11.40
2006,09,27,07,22,11.40
2006,09,27,07,23,11.40
2006,09,27,07,24,11.40
2006,09,27,07,25,11.40
2006,09,27,07,26,11.40
2006,09,27,07,27,11.40
2006,09,27,07,28,11.40
2006,09,27,07,29,11.40
2006,09,27,07,30,11.50
2006,09,27,07,31,11.50
2006,09,27,07,32,11.50
2006,09,27,07,33,11.50
2006,09,27,07,34,11.50
2006,09,27,07,35,11.50
2006,09,27,07,36,11.40
2006,09,27,07,37,11.40
2006,09,27,07,38,11.40
2006,09,27,07,39,11.40
2006,09,27,07,40,11.40
2006,09,27,07,41,11.40
2006,09,27,07,42,11.40
2006,09,27,07,43,11.40
2006,09,27,07,44,11.40
2006,09,27,07,45,11.40
2006,09,27,07,46,11.50
2006,09,27,07,47,11.50
2006,09,27,07,48,11.60
2006,09,27,07,49,11.60
2006,09,27,07,50,11.60
2006,09,27,07,51,11.60
2006,09,27,07,52,11.60
2006,09,27,07,53,11.70
2006,09,27,07,54,11.70
2006,09,27,07,55,11.70
2006,09,27,07,56,11.70
2006,09,27,07,57,11.80
2006,09,27,07,58,11.80
2006,09,27,07,59,11.90
2006,09,27,08,00,11.90
2006,09,27,08,01,11.90
2006,09,27,08,02,12.00
2006,09,27,08,03,12.00
2006,09,27,08,04,12.10
2006,09,27,08,05,12.10
2006,09,27,08,06,12.10
2006,09,27,08,07,12.20
2006,09,27,08,08,12.20
2006,09,27,08,09,12.30
2006,09,27,08,10,12.30
2006,09,27,08,11,12.30
2006,09,27,08,12,12.30
2006,09,27,08,13,12.40
2006,09,27,08,14,12.40
2006,09,27,08,15,12.40
2006,09,27,08,16,12.50
2006,09,27,08,17,12.50
2006,09,27,08,18,12.60
2006,09,27,08,19,12.60
2006,09,27,08,20,12.70
2006,09,27,08,21,12.70
2006,09,27,08,22,12.80
2006,09,27,08,23,12.80
2006,09,27,08,24,12.80
2006,09,27,08,25,12.90
2006,09,27,08,26,13.00
2006,09,27,08,27,13.00
2006,09,27,08,28,13.00
2006,09,27,08,29,13.10
2006,09,27,08,30,13.10
2006,09,27,08,31,13.10
2006,09,27,08,32,13.20
2006,09,27,08,33,13.30
2006,09,27,08,34,13.30
2006,09,27,08,35,13.40
2006,09,27,08,36,13.50
2006,09,27,08,37,13.60
2006,09,27,08,38,13.70
2006,09,27,08,39,13.70
2006,09,27,08,40,13.80
2006,09,27,08,41,13.90
2006,09,27,08,42,13.90
2006,09,27,08,43,13.90
2006,09,27,08,44,13.90
2006,09,27,08,45,13.90
2006,09,27,08,46,13.90
2006,09,27,08,47,13.90
2006,09,27,08,48,14.00
2006,09,27,08,49,14.00
2006,09,27,08,50,14.10
2006,09,27,08,51,14.10
2006,09,27,08,52,14.20
2006,09,27,08,53,14.30
2006,09,27,08,54,14.30
2006,09,27,08,55,14.30
2006,09,27,08,56,14.40
2006,09,27,08,57,14.40
2006,09,27,08,58,14.40
2006,09,27,08,59,14.40
2006,09,27,09,00,14.40
2006,09,27,09,01,14.40
2006,09,27,09,02,14.50
2006,09,27,09,03,14.50
2006,09,27,09,04,14.60
2006,09,27,09,05,14.60
2006,09,27,09,06,14.70
2006,09,27,09,07,14.70
2006,09,27,09,08,14.80
2006,09,27,09,09,14.80
2006,09,27,09,10,14.90
2006,09,27,09,11,15.00
2006,09,27,09,12,15.00
2006,09,27,09,13,15.00
2006,09,27,09,14,15.00
2006,09,27,09,15,15.20
2006,09,27,09,16,15.30
2006,09,27,09,17,15.40
2006,09,27,09,18,15.50
2006,09,27,09,19,15.60
2006,09,27,09,20,15.70
2006,09,27,09,21,15.80
2006,09,27,09,22,15.90
2006,09,27,09,23,16.00
2006,09,27,09,24,16.10
2006,09,27,09,25,16.10
2006,09,27,09,26,16.20
2006,09,27,09,27,16.30
2006,09,27,09,28,16.40
2006,09,27,09,29,16.50
2006,09,27,09,30,16.60
2006,09,27,09,31,16.70
2006,09,27,09,32,16.80
2006,09,27,09,33,16.90
2006,09,27,09,34,16.90
2006,09,27,09,35,17.00
2006,09,27,09,36,17.10
2006,09,27,09,37,17.10
2006,09,27,09,38,17.10
2006,09,27,09,39,17.20
2006,09,27,09,40,17.20
2006,09,27,09,41,17.20
2006,09,27,09,42,17.30
2006,09,27,09,43,17.30
2006,09,27,09,44,17.30
2006,09,27,09,45,17.40
2006,09,27,09,46,17.40
2006,09,27,09,47,17.40
2006,09,27,09,48,17.50
2006,09,27,09,49,17.50
2006,09,27,09,50,17.60
2006,09,27,09,51,17.60
2006,09,27,09,52,17.70
2006,09,27,09,53,17.80
2006,09,27,09,54,17.90
2006,09,27,09,55,18.00
2006,09,27,09,56,18.00
2006,09,27,09,57,18.10
2006,09,27,09,58,18.10
2006,09,27,09,59,18.20
2006,09,27,10,00,18.20
2006,09,27,10,01,18.20
2006,09,27,10,02,18.20
2006,09,27,10,03,18.30
2006,09,27,10,04,18.30
2006,09,27,10,05,18.30
2006,09,27,10,06,18.30
2006,09,27,10,07,18.30
2006,09,27,10,08,18.30
2006,09,27,10,09,18.30
2006,09,27,10,10,18.20
2006,09,27,10,11,18.20
2006,09,27,10,12,18.20
2006,09,27,10,13,18.20
2006,09,27,10,14,18.20
2006,09,27,10,15,18.20
2006,09,27,10,16,18.20
2006,09,27,10,17,18.20
2006,09,27,10,18,18.20
2006,09,27,10,19,18.20
2006,09,27,10,20,18.30
2006,09,27,10,21,18.30
2006,09,27,10,22,18.40
2006,09,27,10,23,18.40
2006,09,27,10,24,18.50
2006,09,27,10,25,18.50
2006,09,27,10,26,18.60
2006,09,27,10,27,18.60
2006,09,27,10,28,18.70
2006,09,27,10,29,18.70
2006,09,27,10,30,18.60
2006,09,27,10,31,18.60
2006,09,27,10,32,18.60
2006,09,27,10,33,18.50
2006,09,27,10,34,18.40
2006,09,27,10,35,18.40
2006,09,27,10,36,18.40
2006,09,27,10,37,18.40
2006,09,27,10,38,18.40
2006,09,27,10,39,18.40
2006,09,27,10,40,18.40
2006,09,27,10,41,18.50
2006,09,27,10,42,18.50
2006,09,27,10,43,18.50
2006,09,27,10,44,18.60
2006,09,27,10,45,18.60
2006,09,27,10,46,18.60
2006,09,27,10,47,18.70
2006,09,27,10,48,18.70
2006,09,27,10,49,18.80
2006,09,27,10,50,18.90
2006,09,27,10,51,19.00
2006,09,27,10,52,19.10
2006,09,27,10,53,19.20
2006,09,27,10,54,19.30
2006,09,27,10,55,19.40
2006,09,27,10,56,19.40
2006,09,27,10,57,19.40
2006,09,27,10,58,19.40
2006,09,27,10,59,19.40
2006,09,27,11,00,19.40
2006,09,27,11,01,19.30
2006,09,27,11,02,19.20
2006,09,27,11,03,19.20
2006,09,27,11,04,19.20
2006,09,27,11,05,19.20
2006,09,27,11,06,19.30
2006,09,27,11,07,19.30
2006,09,27,11,08,19.20
2006,09,27,11,09,19.20
2006,09,27,11,10,19.10
2006,09,27,11,11,19.00
2006,09,27,11,12,19.00
2006,09,27,11,13,19.00
2006,09,27,11,14,18.90
2006,09,27,11,15,18.80
2006,09,27,11,16,18.80
2006,09,27,11,17,18.70
2006,09,27,11,18,18.70
2006,09,27,11,19,18.60
2006,09,27,11,20,18.60
2006,09,27,11,21,18.50
2006,09,27,11,22,18.50
2006,09,27,11,23,18.50
2006,09,27,11,24,18.50
2006,09,27,11,25,18.60
2006,09,27,11,26,18.60
2006,09,27,11,27,18.60
2006,09,27,11,28,18.60
2006,09,27,11,29,18.70
2006,09,27,11,30,18.70
2006,09,27,11,31,18.70
2006,09,27,11,32,18.80
2006,09,27,11,33,18.80
2006,09,27,11,34,18.90
2006,09,27,11,35,19.00
2006,09,27,11,36,19.10
2006,09,27,11,37,19.10
2006,09,27,11,38,19.20
2006,09,27,11,39,19.30
2006,09,27,11,40,19.40
2006,09,27,11,41,19.50
2006,09,27,11,42,19.60
2006,09,27,11,43,19.60
2006,09,27,11,44,19.60
2006,09,27,11,45,19.60
2006,09,27,11,46,19.60
2006,09,27,11,47,19.50
2006,09,27,11,48,19.50
2006,09,27,11,49,19.30
2006,09,27,11,50,19.30
2006,09,27,11,51,19.20
2006,09,27,11,52,19.20
2006,09,27,11,53,19.10
2006,09,27,11,54,19.10
2006,09,27,11,55,19.10
2006,09,27,11,56,19.10
2006,09,27,11,57,19.10
2006,09,27,11,58,19.10
2006,09,27,11,59,19.10
2006,09,27,12,00,19.10
2006,09,27,12,01,19.10
2006,09,27,12,02,19.10
2006,09,27,12,03,19.20
2006,09,27,12,04,19.20
2006,09,27,12,05,19.30
2006,09,27,12,06,19.30
2006,09,27,12,07,19.30
2006,09,27,12,08,19.40
2006,09,27,12,09,19.40
2006,09,27,12,10,19.40
2006,09,27,12,11,19.40
2006,09,27,12,12,19.30
2006,09,27,12,13,19.30
2006,09,27,12,14,19.30
2006,09,27,12,15,19.30
2006,09,27,12,16,19.20
2006,09,27,12,17,19.30
2006,09,27,12,18,19.30
2006,09,27,12,19,19.40
2006,09,27,12,20,19.40
2006,09,27,12,21,19.30
2006,09,27,12,22,19.40
2006,09,27,12,23,19.50
2006,09,27,12,24,19.60
2006,09,27,12,25,19.60
2006,09,27,12,26,19.70
2006,09,27,12,27,19.60
2006,09,27,12,28,19.60
2006,09,27,12,29,19.70
2006,09,27,12,30,19.70
2006,09,27,12,31,19.70
2006,09,27,12,32,19.60
2006,09,27,12,33,19.60
2006,09,27,12,34,19.60
2006,09,27,12,35,19.60
2006,09,27,12,36,19.70
2006,09,27,12,37,19.70
2006,09,27,12,38,19.70
2006,09,27,12,39,19.70
2006,09,27,12,40,19.80
2006,09,27,12,41,19.80
2006,09,27,12,42,19.80
2006,09,27,12,43,19.80
2006,09,27,12,44,19.90
2006,09,27,12,45,20.00
2006,09,27,12,46,20.10
2006,09,27,12,47,20.20
2006,09,27,12,48,20.30
2006,09,27,12,49,20.40
2006,09,27,12,50,20.40
2006,09,27,12,51,20.50
2006,09,27,12,52,20.60
2006,09,27,12,53,20.70
2006,09,27,12,54,20.80
2006,09,27,12,55,20.90
2006,09,27,12,56,20.90
2006,09,27,12,57,21.00
2006,09,27,12,58,21.10
2006,09,27,12,59,21.10
2006,09,27,13,00,21.20
2006,09,27,13,01,21.20
2006,09,27,13,02,21.20
2006,09,27,13,03,21.20
2006,09,27,13,04,21.10
2006,09,27,13,05,20.90
2006,09,27,13,06,20.70
2006,09,27,13,07,20.70
2006,09,27,13,08,20.70
2006,09,27,13,09,20.60
2006,09,27,13,10,20.70
2006,09,27,13,11,20.70
2006,09,27,13,12,20.80
2006,09,27,13,13,20.80
2006,09,27,13,14,20.90
2006,09,27,13,15,20.90
2006,09,27,13,16,20.90
2006,09,27,13,17,20.90
2006,09,27,13,18,20.90
2006,09,27,13,19,20.90
2006,09,27,13,20,20.90
2006,09,27,13,21,20.90
2006,09,27,13,22,20.80
2006,09,27,13,23,20.80
2006,09,27,13,24,20.80
2006,09,27,13,25,20.90
2006,09,27,13,26,20.90
2006,09,27,13,27,20.90
2006,09,27,13,28,20.70
2006,09,27,13,29,20.70
2006,09,27,13,30,20.60
2006,09,27,13,31,20.60
2006,09,27,13,32,20.60
2006,09,27,13,33,20.50
2006,09,27,13,34,20.50
2006,09,27,13,35,20.50
2006,09,27,13,36,20.40
2006,09,27,13,37,20.40
2006,09,27,13,38,20.20
2006,09,27,13,39,20.20
2006,09,27,13,40,20.10
2006,09,27,13,41,20.10
2006,09,27,13,42,20.20
2006,09,27,13,43,20.20
2006,09,27,13,44,20.20
2006,09,27,13,45,20.20
2006,09,27,13,46,20.30
2006,09,27,13,47,20.30
2006,09,27,13,48,20.30
2006,09,27,13,49,20.40
2006,09,27,13,50,20.40
2006,09,27,13,51,20.40
2006,09,27,13,52,20.50
2006,09,27,13,53,20.50
2006,09,27,13,54,20.50
2006,09,27,13,55,20.50
2006,09,27,13,56,20.50
2006,09,27,13,57,20.60
2006,09,27,13,58,20.60
2006,09,27,13,59,20.70
2006,09,27,14,00,20.70
2006,09,27,14,01,20.70
2006,09,27,14,02,20.70
2006,09,27,14,03,20.70
2006,09,27,14,04,20.70
2006,09,27,14,05,20.80
2006,09,27,14,06,20.90
2006,09,27,14,07,21.00
2006,09,27,14,08,21.10
2006,09,27,14,09,21.10
2006,09,27,14,10,21.10
2006,09,27,14,11,21.10
2006,09,27,14,12,21.30
2006,09,27,14,13,21.30
2006,09,27,14,14,21.40
2006,09,27,14,15,21.40
2006,09,27,14,16,21.40
2006,09,27,14,17,21.40
2006,09,27,14,18,21.40
2006,09,27,14,19,21.50
2006,09,27,14,20,21.50
2006,09,27,14,21,21.60
2006,09,27,14,22,21.40
2006,09,27,14,23,21.30
2006,09,27,14,24,21.10
2006,09,27,14,25,20.90
2006,09,27,14,26,20.70
2006,09,27,14,27,20.60
2006,09,27,14,28,20.60
2006,09,27,14,29,20.60
2006,09,27,14,30,20.50
2006,09,27,14,31,20.40
2006,09,27,14,32,20.40
2006,09,27,14,33,20.40
2006,09,27,14,34,20.40
2006,09,27,14,35,20.40
2006,09,27,14,36,20.50
2006,09,27,14,37,20.50
2006,09,27,14,38,20.50
2006,09,27,14,39,20.50
2006,09,27,14,40,20.60
2006,09,27,14,41,20.70
2006,09,27,14,42,20.70
2006,09,27,14,43,20.80
2006,09,27,14,44,20.90
2006,09,27,14,45,20.90
2006,09,27,14,46,20.90
2006,09,27,14,47,21.00
2006,09,27,14,48,21.10
2006,09,27,14,49,21.10
2006,09,27,14,50,21.20
2006,09,27,14,51,21.20
2006,09,27,14,52,21.30
2006,09,27,14,53,21.40
2006,09,27,14,54,21.40
2006,09,27,14,55,21.40
2006,09,27,14,56,21.40
2006,09,27,14,57,21.40
2006,09,27,14,58,21.50
2006,09,27,14,59,21.60
2006,09,27,15,00,21.70
2006,09,27,15,01,21.80
2006,09,27,15,02,21.90
2006,09,27,15,03,21.90
2006,09,27,15,04,21.80
2006,09,27,15,05,21.70
2006,09,27,15,06,21.70
2006,09,27,15,07,21.70
2006,09,27,15,08,21.60
2006,09,27,15,09,21.60
2006,09,27,15,10,21.60
2006,09,27,15,11,21.60
2006,09,27,15,12,21.60
2006,09,27,15,13,21.50
2006,09,27,15,14,21.50
2006,09,27,15,15,21.50
2006,09,27,15,16,21.50
2006,09,27,15,17,21.50
2006,09,27,15,18,21.40
2006,09,27,15,19,21.40
2006,09,27,15,20,21.40
2006,09,27,15,21,21.40
2006,09,27,15,22,21.50
2006,09,27,15,23,21.60
2006,09,27,15,24,21.60
2006,09,27,15,25,21.60
2006,09,27,15,26,21.60
2006,09,27,15,27,21.70
2006,09,27,15,28,21.70
2006,09,27,15,29,21.70
2006,09,27,15,30,21.80
2006,09,27,15,31,21.80
2006,09,27,15,32,21.80
2006,09,27,15,33,21.80
2006,09,27,15,34,21.90
2006,09,27,15,35,21.90
2006,09,27,15,36,22.00
2006,09,27,15,37,22.00
2006,09,27,15,38,22.00
2006,09,27,15,39,22.10
2006,09,27,15,40,22.10
2006,09,27,15,41,22.20
2006,09,27,15,42,22.20
2006,09,27,15,43,22.20
2006,09,27,15,44,22.20
2006,09,27,15,45,22.20
2006,09,27,15,46,22.30
2006,09,27,15,47,22.30
2006,09,27,15,48,22.30
2006,09,27,15,49,22.30
2006,09,27,15,50,22.30
2006,09,27,15,51,22.40
2006,09,27,15,52,22.40
2006,09,27,15,53,22.50
2006,09,27,15,54,22.50
2006,09,27,15,55,22.50
2006,09,27,15,56,22.60
2006,09,27,15,57,22.60
2006,09,27,15,58,22.60
2006,09,27,15,59,22.50
2006,09,27,16,00,22.50
2006,09,27,16,01,22.50
2006,09,27,16,02,22.40
2006,09,27,16,03,22.40
2006,09,27,16,04,22.40
2006,09,27,16,05,22.30
2006,09,27,16,06,22.30
2006,09,27,16,07,22.30
2006,09,27,16,08,22.30
2006,09,27,16,09,22.30
2006,09,27,16,10,22.30
2006,09,27,16,11,22.30
2006,09,27,16,12,22.30
2006,09,27,16,13,22.20
2006,09,27,16,14,22.10
2006,09,27,16,15,22.10
2006,09,27,16,16,22.10
2006,09,27,16,17,22.20
2006,09,27,16,18,22.20
2006,09,27,16,19,22.20
2006,09,27,16,20,22.20
2006,09,27,16,21,22.20
2006,09,27,16,22,22.20
2006,09,27,16,23,22.20
2006,09,27,16,24,22.20
2006,09,27,16,25,22.20
2006,09,27,16,26,22.20
2006,09,27,16,27,22.30
2006,09,27,16,28,22.30
2006,09,27,16,29,22.30
2006,09,27,16,30,22.30
2006,09,27,16,31,22.30
2006,09,27,16,32,22.30
2006,09,27,16,33,22.40
2006,09,27,16,34,22.40
2006,09,27,16,35,22.50
2006,09,27,16,36,22.60
2006,09,27,16,37,22.70
2006,09,27,16,38,22.70
2006,09,27,16,39,22.70
2006,09,27,16,40,22.70
2006,09,27,16,41,22.60
2006,09,27,16,42,22.60
2006,09,27,16,43,22.60
2006,09,27,16,44,22.60
2006,09,27,16,45,22.60
2006,09,27,16,46,22.60
2006,09,27,16,47,22.60
2006,09,27,16,48,22.60
2006,09,27,16,49,22.50
2006,09,27,16,50,22.50
2006,09,27,16,51,22.40
2006,09,27,16,52,22.30
2006,09,27,16,53,22.30
2006,09,27,16,54,22.30
2006,09,27,16,55,22.20
2006,09,27,16,56,22.20
2006,09,27,16,57,22.20
2006,09,27,16,58,22.10
2006,09,27,16,59,22.10
2006,09,27,17,00,22.10
2006,09,27,17,01,22.10
2006,09,27,17,02,22.10
2006,09,27,17,03,22.10
2006,09,27,17,04,22.10
2006,09,27,17,05,22.10
2006,09,27,17,06,22.10
2006,09,27,17,07,22.00
2006,09,27,17,08,21.90
2006,09,27,17,09,21.90
2006,09,27,17,10,21.90
2006,09,27,17,11,22.00
2006,09,27,17,12,22.00
2006,09,27,17,13,22.10
2006,09,27,17,14,22.20
2006,09,27,17,15,22.30
2006,09,27,17,16,22.40
2006,09,27,17,17,22.50
2006,09,27,17,18,22.60
2006,09,27,17,19,22.60